Wauseon, OH

10:38 AM EST on December 06, 2016 (GMT -0500)
Fulton County

Weather History for KUSE - March, 2014

Change the Weather History Date:

Saturday, March 1, 2014

  Actual Average (KTOL) Record (KTOL)
Temperature  
Mean Temperature 24 °F 32 °F  
Max Temperature 32 °F 41 °F 65 °F (1997)
Min Temperature 17 °F 24 °F 2 °F (1960)
Degree Days  
Heating Degree Days 40 33  
Month to date heating degree days 33  
Since 1 July heating degree days 4609  
Cooling Degree Days 0 0  
Month to date cooling degree days 0  
Year to date cooling degree days 0  
Moisture  
Dew Point 17 °F    
Average Humidity 75    
Maximum Humidity 93    
Minimum Humidity 59    
Precipitation  
Precipitation 0.00 in 0.08 in 0.67 in (2007)
Month to date precipitation 0.08  
Year to date precipitation 4.20  
Snow  
Snow 0.00 in 0.30 in - ()
Month to date snowfall 0.3  
Since 1 July snowfall 30.8  
Snow Depth -    
Sea Level Pressure  
Sea Level Pressure 30.11 in    
Wind  
Wind Speed 6 mph (WNW)    
Max Wind Speed 13 mph    
Max Gust Speed 13 mph    
Visibility 8 miles    
Events Snow    
T = Trace of Precipitation, MM = Missing Value Source: NWS Daily Summary

Daily Weather History Graph

Daily Weather History Graph

Search for Another Location

Airport or City:

Trip Planner

Search our weather history database for the weather conditions in past years. The results will help you decide how hot, cold, wet, or windy it might be!

Date:

Astronomy

Mar. 01, 2014 Rise Set
Actual Time 7:11 AM EST 6:27 PM EST
Civil Twilight 6:43 AM EST 6:54 PM EST
Nautical Twilight 6:11 AM EST 7:27 PM EST
Astronomical Twilight 5:39 AM EST 7:59 PM EST
Moon 7:03 AM EST (3/1) 7:14 PM EST (3/1)
Length of Visible Light 12h 11m
Length of Day
11h 15m
New Moon, 0% of the Moon is Illuminated
Mar 1
New Moon
Mar 8
First Quarter
Mar 16
Full
Mar 23
Last Quarter
Mar 30
New

Hourly Weather History & Observations

Time (EST) Temp. Windchill Dew Point Humidity Pressure Visibility Wind Dir Wind Speed Gust Speed Precip Events Conditions
12:15 AM 19.4 °F 11.5 °F 8.6 °F 63% 30.07 in 10.0 mi SE 5.8 mph - N/A   Clear
12:35 AM 19.4 °F 9.5 °F 8.6 °F 63% 30.06 in 10.0 mi SSE 8.1 mph - N/A   Clear
12:55 AM 19.4 °F 11.5 °F 8.6 °F 63% 30.06 in 10.0 mi SSE 5.8 mph - N/A   Clear
1:15 AM 19.4 °F 10.4 °F 8.6 °F 63% 30.05 in 10.0 mi South 6.9 mph - N/A   Clear
1:35 AM 19.4 °F 7.9 °F 8.6 °F 63% 30.05 in 10.0 mi SSE 10.4 mph - N/A   Clear
1:55 AM 21.2 °F 11.7 °F 10.4 °F 63% 30.05 in 10.0 mi South 8.1 mph - N/A   Scattered Clouds
2:15 AM 19.4 °F 9.5 °F 10.4 °F 68% 30.04 in 10.0 mi South 8.1 mph - N/A   Overcast
2:35 AM 21.2 °F 11.7 °F 10.4 °F 63% 30.04 in 10.0 mi South 8.1 mph - N/A   Mostly Cloudy
2:55 AM 19.4 °F 10.4 °F 10.4 °F 68% 30.04 in 10.0 mi South 6.9 mph - N/A   Partly Cloudy
3:15 AM 19.4 °F 12.8 °F 10.4 °F 68% 30.03 in 10.0 mi South 4.6 mph - N/A   Partly Cloudy
3:35 AM 17.6 °F 9.3 °F 10.4 °F 73% 30.04 in 10.0 mi South 5.8 mph - N/A   Partly Cloudy
3:55 AM 17.6 °F 10.7 °F 10.4 °F 73% 30.04 in 10.0 mi South 4.6 mph - N/A   Scattered Clouds
4:15 AM 17.6 °F 12.3 °F 10.4 °F 73% 30.04 in 10.0 mi South 3.5 mph - N/A   Mostly Cloudy
4:35 AM 19.4 °F 12.8 °F 10.4 °F 68% 30.05 in 10.0 mi SSW 4.6 mph - N/A   Mostly Cloudy
4:55 AM 19.4 °F 14.3 °F 10.4 °F 68% 30.05 in 10.0 mi SSW 3.5 mph - N/A   Overcast
5:15 AM 19.4 °F - 12.2 °F 74% 30.05 in 10.0 mi Calm Calm - N/A   Overcast
5:35 AM 21.2 °F - 12.2 °F 68% 30.05 in 10.0 mi Calm Calm - N/A   Overcast
5:55 AM 21.2 °F - 12.2 °F 68% 30.05 in 10.0 mi Calm Calm - N/A   Overcast
6:15 AM 21.2 °F - 12.2 °F 68% 30.05 in 10.0 mi Calm Calm - N/A   Partly Cloudy
6:35 AM 21.2 °F - 12.2 °F 68% 30.06 in 10.0 mi Calm Calm - N/A   Mostly Cloudy
6:55 AM 21.2 °F - 12.2 °F 68% 30.06 in 10.0 mi Calm Calm - N/A   Overcast
7:15 AM 21.2 °F - 14.0 °F 74% 30.07 in 10.0 mi Calm Calm - N/A   Overcast
7:35 AM 21.2 °F - 14.0 °F 74% 30.08 in 10.0 mi Calm Calm - N/A   Overcast
7:55 AM 21.2 °F 16.4 °F 12.2 °F 68% 30.08 in 10.0 mi WNW 3.5 mph - N/A   Mostly Cloudy
8:15 AM 21.2 °F - 15.8 °F 80% 30.08 in 9.0 mi Calm Calm - N/A   Scattered Clouds
8:35 AM 23.0 °F - 15.8 °F 74% 30.09 in 8.0 mi Calm Calm - N/A   Partly Cloudy
8:55 AM 24.8 °F 17.9 °F 15.8 °F 69% 30.08 in 10.0 mi South 5.8 mph - N/A   Mostly Cloudy
9:15 AM 26.6 °F 21.2 °F 15.8 °F 64% 30.09 in 10.0 mi SSW 4.6 mph - N/A   Overcast
9:35 AM 26.6 °F 19.1 °F 15.8 °F 64% 30.09 in 10.0 mi SW 6.9 mph - N/A   Overcast
9:55 AM 28.4 °F 22.2 °F 15.8 °F 59% 30.09 in 10.0 mi WSW 5.8 mph - N/A   Overcast
10:15 AM 28.4 °F 23.3 °F 15.8 °F 59% 30.09 in 10.0 mi SW 4.6 mph - N/A   Overcast
10:35 AM 28.4 °F 20.4 °F 19.4 °F 69% 30.09 in 10.0 mi SSW 8.1 mph - N/A   Overcast
10:55 AM 28.4 °F 20.4 °F 17.6 °F 64% 30.10 in 10.0 mi WSW 8.1 mph - N/A   Overcast
11:15 AM 30.2 °F 23.4 °F 17.6 °F 60% 30.10 in 10.0 mi WSW 6.9 mph - N/A   Overcast
11:35 AM 30.2 °F 23.4 °F 17.6 °F 60% 30.10 in 10.0 mi WSW 6.9 mph - N/A   Overcast
11:55 AM 30.2 °F 23.4 °F 19.4 °F 64% 30.11 in 10.0 mi West 6.9 mph - N/A   Overcast
12:15 PM 30.2 °F 24.3 °F 19.4 °F 64% 30.10 in 10.0 mi West 5.8 mph - N/A   Overcast
12:35 PM 32.0 °F 25.6 °F 19.4 °F 60% 30.11 in 10.0 mi West 6.9 mph - N/A   Overcast
12:55 PM 32.0 °F 23.6 °F 19.4 °F 60% 30.12 in 10.0 mi West 10.4 mph - N/A   Overcast
1:15 PM 30.2 °F 22.6 °F 19.4 °F 64% 30.12 in 10.0 mi West 8.1 mph - N/A   Overcast
1:35 PM 32.0 °F 26.4 °F 19.4 °F 60% 30.10 in 10.0 mi WSW 5.8 mph - N/A   Overcast
1:55 PM 32.0 °F 26.4 °F 21.2 °F 64% 30.11 in 10.0 mi West 5.8 mph - N/A   Overcast
2:15 PM 32.0 °F 26.4 °F 21.2 °F 64% 30.10 in 10.0 mi West 5.8 mph - N/A   Overcast
2:35 PM 32.0 °F 25.6 °F 23.0 °F 69% 30.10 in 10.0 mi WNW 6.9 mph - N/A   Overcast
2:55 PM 32.0 °F 24.2 °F 24.8 °F 75% 30.10 in 9.0 mi NW 9.2 mph - N/A   Overcast
3:15 PM 30.2 °F 20.2 °F 24.8 °F 80% 30.12 in 9.0 mi NW 12.7 mph - N/A   Overcast
3:35 PM 30.2 °F 22.6 °F 26.6 °F 86% 30.11 in 5.0 mi NW 8.1 mph - N/A   Overcast
3:55 PM 28.4 °F 18.5 °F 26.6 °F 93% 30.13 in 4.0 mi NW 11.5 mph - N/A   Overcast
4:15 PM 28.4 °F 20.4 °F 26.6 °F 93% 30.13 in 2.0 mi NW 8.1 mph - N/A   Overcast
4:35 PM 28.4 °F 20.4 °F 26.6 °F 93% 30.13 in 1.5 mi NNW 8.1 mph - N/A   Overcast
4:55 PM 28.4 °F 21.2 °F 24.8 °F 86% 30.13 in 3.0 mi NW 6.9 mph - N/A   Overcast
5:15 PM 28.4 °F 22.2 °F 24.8 °F 86% 30.13 in 5.0 mi NNW 5.8 mph - N/A   Overcast
5:35 PM 28.4 °F 19.7 °F 23.0 °F 80% 30.14 in 7.0 mi NNW 9.2 mph - N/A   Overcast
5:55 PM 28.4 °F 22.2 °F 23.0 °F 80% 30.14 in 7.0 mi NW 5.8 mph - N/A   Overcast
6:15 PM 28.4 °F 22.2 °F 23.0 °F 80% 30.15 in 7.0 mi NNW 5.8 mph - N/A   Overcast
6:35 PM 28.4 °F 21.2 °F 23.0 °F 80% 30.16 in 6.0 mi NNW 6.9 mph - N/A   Haze
6:55 PM 28.4 °F 20.4 °F 21.2 °F 74% 30.17 in 9.0 mi NNW 8.1 mph - N/A   Overcast
7:15 PM 26.6 °F 20.0 °F 21.2 °F 80% 30.17 in 5.0 mi North 5.8 mph 12.7 mph N/A   Haze
7:35 PM 26.6 °F 19.1 °F 23.0 °F 86% 30.17 in 5.0 mi North 6.9 mph 12.7 mph N/A   Haze
7:55 PM 26.6 °F 17.5 °F 23.0 °F 86% 30.18 in 5.0 mi North 9.2 mph - N/A   Overcast
8:15 PM 24.8 °F 15.3 °F 23.0 °F 93% 30.18 in 2.5 mi North 9.2 mph - N/A   Overcast
8:35 PM 24.8 °F 17.9 °F 23.0 °F 93% 30.18 in 1.8 mi North 5.8 mph - N/A Snow Light Snow
8:55 PM 24.8 °F 16.9 °F 23.0 °F 93% 30.18 in 0.8 mi North 6.9 mph - N/A Snow Light Snow
9:15 PM 23.0 °F 12.4 °F 21.2 °F 93% 30.20 in 1.0 mi North 10.4 mph - N/A Snow Light Snow
9:35 PM 23.0 °F 13.9 °F 21.2 °F 93% 30.21 in 1.0 mi North 8.1 mph - N/A Snow Light Snow
9:55 PM 23.0 °F 13.1 °F 21.2 °F 93% 30.21 in 1.0 mi North 9.2 mph - N/A Snow Light Snow
10:15 PM 23.0 °F 13.1 °F 21.2 °F 93% 30.22 in 1.0 mi North 9.2 mph - N/A Snow Light Snow
10:35 PM 23.0 °F 15.8 °F 21.2 °F 93% 30.22 in 1.2 mi North 5.8 mph - N/A Snow Light Snow
10:55 PM 21.2 °F 10.9 °F 19.4 °F 93% 30.22 in 1.8 mi North 9.2 mph - N/A Snow Light Snow
11:15 PM 21.2 °F 12.6 °F 19.4 °F 93% 30.23 in 1.5 mi NNE 6.9 mph - N/A Snow Light Snow
11:35 PM 21.2 °F 12.6 °F 17.6 °F 86% 30.23 in 1.8 mi NNE 6.9 mph - N/A Snow Light Snow
11:55 PM 19.4 °F 9.5 °F 17.6 °F 93% 30.23 in 3.0 mi NNE 8.1 mph - N/A Snow Light Snow